Zurück zum Katalog

STARLINK-33742

AktivKommunikationVLEO
NORAD 63366·PAYLOAD·🇺🇸 United States

Gestartet Mar 26, 2025 von Vandenberg Space Force Base

Loading…

Nächste Überflüge (nächste 24 Stunden)

TLE

AktuellSource: CelesTrak SupGP

Epoche: Sep 15, 2026, 03:34 UTC

1 63366C 25063D   26258.14909722 -.00047370  00000+0 -13985-2 0  2585
2 63366  53.1579 250.8517 0001356  88.3237 105.0400 15.34438786    10

Verfolge STARLINK-33742 in Echtzeit mit AllMySat

Download on the App Store